Regional Weather Roundup
Issued by NWS Mt. Holly, NJ

Current Version | Previous Version | Text Only | Print | Product List | Glossary On
Versions: 1 2 3 4 5 6 7 8 9 10 11 12 13 14 15 16 17 18 19 20 21 22 23 24 25 26 27 28 29 30 31 32 33 34 35 36 37 38 39 40 41 42 43 44 45 46 47 48 49 50
000
ASUS41 KPHI 100812
RWRPHI

REGIONAL WEATHER ROUNDUP
NATIONAL WEATHER SERVICE MOUNT HOLLY NJ
300 AM EST WED FEB 10 2016

NOTE:  "FAIR" INDICATES FEW OR NO CLOUDS BELOW 12,000 FEET WITH NO
SIGNIFICANT WEATHER AND/OR OBSTRUCTIONS TO VISIBILITY.

 * = STATION DOES NOT REPORT PRECIPITATION (E.G. RAIN, SNOW, ETC.)
        OR FOG.

NJZ015>026-100900-
SOUTHERN NEW JERSEY

CITY           SKY/WX    TMP DP  RH WIND       PRES   REMARKS
POMONA         CLOUDY    33  31  92 W9        29.61S FOG     WCI  25
WILDWOOD*      CLOUDY    34  27  75 W9G17     29.63F WCI  26
MILLVILLE      CLOUDY    33  29  85 W10       29.63S WCI  25
WRIGHTSTOWN    CLOUDY    32  32 100 W5        29.58S WCI  27
MOUNT HOLLY    CLOUDY    32  30  92 W8        29.61S FOG     WCI  25
TRENTON        CLOUDY    32  29  88 W5        29.59S FOG     WCI  27

$$
NJZ001>014-100900-
NORTHERN NEW JERSEY

CITY           SKY/WX    TMP DP  RH WIND       PRES   REMARKS
SUSSEX         MIX PCPN  31  28  89 CALM      29.55F
ANDOVER*         N/A     30  27  88 CALM      29.55F
MORRISTOWN     CLOUDY    30  28  93 CALM      29.59S FOG
NEWARK         CLOUDY    34  30  86 SW6       29.59F FOG     WCI  29
TETERBORO      LGT SNOW  32  28  85 SW3       29.58F FOG
CALDWELL       CLOUDY    31  28  89 SW3       29.58F FOG
SOMERVILLE     CLOUDY    31  29  92 CALM      29.57F FOG
ALLAIRE*       CLOUDY    30  25  80 W3        29.59S
TOMS RIVER*    CLOUDY    32  28  86 CALM      29.60F

$$
PAZ043-044-047-054-055-060>062-066>071-100900-
EASTERN PENNSYLVANIA

CITY           SKY/WX    TMP DP  RH WIND       PRES   REMARKS
PHILADELPHIA   CLOUDY    33  27  78 W8        29.63S WCI  26
NORTH PHILA    CLOUDY    33  29  85 W9        29.62F FOG     WCI  25
BLUE BELL*       N/A     30  28  93 CALM      29.60S
DOYLESTOWN     CLOUDY    28  27  96 W5        29.58S WCI  23
QUAKERTOWN*    CLOUDY    30  28  93 CALM      29.59S
PERKASIE*      CLOUDY    28  28 100 W6        29.58F FOG     WCI  22
POTTSTOWN      CLOUDY    29  27  92 W5        29.61F FOG     WCI  24
LANCASTER      LGT SNOW  27  26  96 W13       29.62S FOG     WCI  16
COATESVILLE    LGT SNOW  28  28 100 W9        29.61S WCI  20
READING        CLOUDY    30  26  85 W5        29.60S WCI  25
ALLENTOWN      CLOUDY    30  26  85 W7        29.58S FOG     WCI  23
MOUNT POCONO   LGT SNOW  26  23  88 NW8       29.47F FOG     WCI  18
HAZLETON       LGT SNOW  28  27  93 W6        29.54S WCI  22
LEHIGHTON      CLOUDY    28  28 100 CALM      29.58S FOG
WILKES BARRE   LGT SNOW  30  28  92 SW5       29.54S FOG     WCI  25

$$
DEZALL-MDZ008-012-015-019-020-100900-
DELAWARE AND EASTERN MARYLAND

CITY           SKY/WX    TMP DP  RH WIND       PRES   REMARKS
WILMINGTON     LGT SNOW  30  27  88 W9        29.64S FOG     WCI  22
DOVER          CLOUDY    32  27  82 W12       29.63S WCI  23
GEORGETOWN     CLOUDY    32  26  78 W8        29.66R WCI  25
EASTON         CLOUDY    32  25  76 NW10      29.71F WCI  24
PATUXENT       CLOUDY    32  21  64 NW16      29.70S WCI  21
OCEAN CITY     CLOUDY    32  27  81 W5        29.67R WCI  27
WALLOPS ISLAND CLOUDY    33  27  78 NW10      29.68S WCI  25
CAMBRIDGE      CLOUDY    32  23  69 W12G18    29.68R WCI  23
SALISBURY      CLOUDY    32  24  72 W9        29.67R WCI  24

$$
PAZ001-021-NYZ056-072-MDZ011-DCZ001-100900-
OTHER NEARBY LOCATIONS

CITY           SKY/WX    TMP DP  RH WIND       PRES   REMARKS
HARRISBURG     CLOUDY    30  24  78 W9        29.63S WCI  22
STATE COLLEGE  CLOUDY    27  20  76 W12       29.60S WCI  17
WILLIAMSPORT   CLOUDY    32  23  69 W14       29.58S WCI  22
BINGHAMTON     CLOUDY    27  25  92 W7        29.48S WCI  19
NEW YORK CITY  CLOUDY    33  29  85 W7        29.60F FOG     WCI  27
BALTIMORE      LGT SNOW  28  23  81 W15       29.68R WCI  16
WASHINGTON DC  LGT SNOW  29  24  82 W7        29.73R WCI  22

$$



USA.gov is the U.S. government's official web portal to all federal, state and local government web resources and services.